SP7QPD-1 Weather Reports


Display with metric or nautical units.
time (UTC)temp
F
wind
direction
speed
MPH
gust
MPH
rain 1hr
in
rain 24hr
in
rain mn
in
humidity
%
barometer
mb
20260506214333 62 22 56.0 75.0 0.00 0.00 0.00 67 1002.8
20260506213333 61 0 56.0 75.0 0.00 0.00 0.00 67 1002.9
20260506212333 61 0 56.0 75.0 0.00 0.00 0.00 67 1003.1
20260506211333 61 0 56.0 75.0 0.00 0.00 0.00 67 1003.2
20260506210333 61 0 56.0 75.0 0.00 0.00 0.00 66 1003.0
20260506205333 61 0 56.0 75.0 0.00 0.00 0.00 66 1003.0
20260506204333 61 0 56.0 75.0 0.00 0.00 0.00 65 1003.1
20260506203333 62 45 56.0 75.0 0.00 0.00 0.00 65 1003.2
20260506202333 62 0 56.0 75.0 0.00 0.00 0.00 65 1003.1
20260506201333 62 0 56.0 75.0 0.00 0.00 0.00 63 1003.1
20260506200333 62 22 56.0 75.0 0.00 0.00 0.00 63 1003.0
20260506195332 63 45 56.0 75.0 0.00 0.00 0.00 63 1003.1
20260506194332 63 0 56.0 75.0 0.00 0.00 0.00 62 1003.1
20260506193332 64 0 56.0 75.0 0.00 0.00 0.00 60 1003.1
20260506192332 64 0 56.0 75.0 0.00 0.00 0.00 59 1002.9
20260506191332 64 0 56.0 75.0 0.00 0.00 0.00 59 1002.9
20260506190332 65 0 56.0 75.0 0.00 0.00 0.00 60 1002.9
20260506185332 66 0 56.0 75.0 0.00 0.00 0.00 57 1002.7
20260506184332 67 0 56.0 75.0 0.00 0.00 0.00 56 1002.8
20260506183332 67 0 56.0 75.0 0.00 0.00 0.00 55 1002.5
20260506182332 68 0 56.0 75.0 0.00 0.00 0.00 55 1002.4
20260506181332 68 0 56.0 75.0 0.00 0.00 0.00 54 1002.5
20260506180332 69 0 56.0 75.0 0.00 0.00 0.00 53 1002.4
20260506175331 70 202 56.0 75.0 0.00 0.00 0.00 53 1002.2
20260506174331 71 0 56.0 75.0 0.00 0.00 0.00 51 1002.1
20260506173331 71 0 56.0 75.0 0.00 0.00 0.00 50 1002.2
20260506172331 72 0 56.0 75.0 0.00 0.00 0.00 50 1002.3
20260506171331 73 0 56.0 75.0 0.00 0.00 0.00 49 1002.2
20260506170331 73 0 56.0 75.0 0.00 0.00 0.00 48 1002.3
20260506165331 73 0 56.0 75.0 0.00 0.00 0.00 47 1002.4
20260506164331 74 0 56.0 75.0 0.00 0.00 0.00 47 1002.3
20260506163331 74 0 56.0 75.0 0.00 0.00 0.00 47 1002.3
20260506162331 74 0 56.0 75.0 0.00 0.00 0.00 46 1002.2
20260506161331 75 0 56.0 75.0 0.00 0.00 0.00 45 1002.4
20260506160330 75 0 56.0 75.0 0.00 0.00 0.00 45 1002.4
20260506155330 75 0 56.0 75.0 0.00 0.00 0.00 44 1002.4
20260506154330 76 0 56.0 75.0 0.00 0.00 0.00 44 1002.5
20260506153330 77 0 56.0 75.0 0.00 0.00 0.00 43 1002.6
20260506152330 77 0 56.0 75.0 0.00 0.00 0.00 42 1002.5
20260506151330 77 0 56.0 75.0 0.00 0.00 0.00 42 1002.4
20260506150330 78 0 56.0 75.0 0.00 0.00 0.00 42 1002.5
20260506145330 77 0 56.0 75.0 0.00 0.00 0.00 43 1002.5
20260506144330 77 0 56.0 75.0 0.00 0.00 0.00 43 1002.5
20260506143330 77 0 56.0 75.0 0.00 0.00 0.00 42 1002.5
20260506142330 78 0 56.0 75.0 0.00 0.00 0.00 43 1002.6
20260506141330 78 0 56.0 75.0 0.00 0.00 0.00 43 1002.7
20260506140330 77 0 56.0 75.0 0.00 0.00 0.00 43 1002.7
20260506135329 78 0 56.0 75.0 0.00 0.00 0.00 42 1002.5
20260506134329 79 0 56.0 75.0 0.00 0.00 0.00 42 1002.6
20260506133329 78 0 56.0 75.0 0.00 0.00 0.00 43 1002.5
20260506132329 78 0 56.0 75.0 0.00 0.00 0.00 43 1002.5
20260506131329 77 0 56.0 75.0 0.00 0.00 0.00 44 1002.8
20260506130329 77 0 56.0 75.0 0.00 0.00 0.00 44 1002.8
20260506125329 76 0 56.0 75.0 0.00 0.00 0.00 45 1002.5
20260506124329 77 0 56.0 75.0 0.00 0.00 0.00 44 1002.8
20260506123329 77 0 56.0 75.0 0.00 0.00 0.00 44 1002.9
20260506122329 77 0 56.0 75.0 0.00 0.00 0.00 45 1002.8
20260506121329 76 0 56.0 75.0 0.00 0.00 0.00 46 1003.0
20260506120328 76 0 56.0 75.0 0.00 0.00 0.00 46 1003.0
20260506115328 75 0 56.0 75.0 0.00 0.00 0.00 47 1003.0
20260506114328 75 0 56.0 75.0 0.00 0.00 0.00 48 1002.9
20260506113328 75 0 56.0 75.0 0.00 0.00 0.00 49 1002.8
20260506112328 74 0 56.0 75.0 0.00 0.00 0.00 50 1003.0
20260506111328 73 45 56.0 75.0 0.00 0.00 0.00 51 1003.2
20260506110328 73 0 56.0 75.0 0.00 0.00 0.00 52 1003.0
20260506105328 73 45 56.0 75.0 0.00 0.00 0.00 51 1003.2
20260506104328 73 0 56.0 75.0 0.00 0.00 0.00 51 1003.1
20260506103328 73 0 56.0 75.0 0.00 0.00 0.00 50 1003.1
20260506102328 73 22 56.0 75.0 0.00 0.00 0.00 50 1003.0
20260506101327 73 0 56.0 75.0 0.00 0.00 0.00 50 1003.2
20260506100327 72 0 56.0 75.0 0.00 0.00 0.00 51 1003.0
20260506095327 72 0 56.0 75.0 0.00 0.00 0.00 52 1002.9
20260506094327 71 0 56.0 75.0 0.00 0.00 0.00 53 1003.0
20260506093327 71 0 56.0 75.0 0.00 0.00 0.00 53 1003.0
20260506092327 71 0 56.0 75.0 0.00 0.00 0.00 54 1003.0
20260506091327 72 0 56.0 75.0 0.00 0.00 0.00 53 1003.1
20260506090327 71 0 56.0 75.0 0.00 0.00 0.00 54 1002.9
20260506085327 71 0 56.0 75.0 0.00 0.00 0.00 54 1002.8
20260506084327 70 0 56.0 75.0 0.00 0.00 0.00 55 1002.9
20260506083327 69 0 56.0 75.0 0.00 0.00 0.00 56 1002.8
20260506082327 70 0 56.0 75.0 0.00 0.00 0.00 56 1002.8
20260506081326 69 0 56.0 75.0 0.00 0.00 0.00 57 1002.7
20260506080326 68 0 56.0 75.0 0.00 0.00 0.00 58 1002.8
20260506073326 65 0 56.0 75.0 0.00 0.00 0.00 61 1002.7
20260506072326 64 0 56.0 75.0 0.00 0.00 0.00 64 1002.5
20260506071326 63 0 56.0 75.0 0.00 0.00 0.00 63 1002.5
20260506070326 63 0 56.0 75.0 0.00 0.00 0.00 64 1002.5
20260506062326 60 0 56.0 75.0 0.00 0.00 0.00 67 1002.6
20260506061325 59 0 56.0 75.0 0.00 0.00 0.00 68 1002.5
20260506060325 58 0 56.0 75.0 0.00 0.00 0.00 69 1002.4
20260506051325 51 0 56.0 75.0 0.00 0.00 0.00 72 1002.8
20260506050325 50 22 56.0 75.0 0.00 0.00 0.00 72 1002.8
20260506044325 49 0 56.0 75.0 0.00 0.00 0.00 71 1002.6
20260506043324 49 0 56.0 75.0 0.00 0.00 0.00 70 1002.8
20260506042324 48 0 56.0 75.0 0.00 0.00 0.00 71 1002.8
20260506041324 48 0 56.0 75.0 0.00 0.00 0.00 70 1002.8
20260506040324 48 0 56.0 75.0 0.00 0.00 0.00 70 1002.7
20260506035324 48 0 56.0 75.0 0.00 0.00 0.00 70 1002.8
20260506034324 48 0 56.0 75.0 0.00 0.00 0.00 70 1002.6
20260506033324 48 0 56.0 75.0 0.00 0.00 0.00 70 1002.6
20260506032324 48 0 56.0 75.0 0.00 0.00 0.00 70 1002.6
20260506031324 49 0 56.0 75.0 0.00 0.00 0.00 68 1002.8
20260506030324 49 22 56.0 75.0 0.00 0.00 0.00 68 1002.8
20260506025324 49 22 56.0 75.0 0.00 0.00 0.00 68 1002.8
20260506024324 49 22 56.0 75.0 0.00 0.00 0.00 68 1002.8
20260506023323 50 0 56.0 75.0 0.00 0.00 0.00 67 1003.0
20260506022323 50 0 56.0 75.0 0.00 0.00 0.00 67 1003.0
20260506021323 50 0 56.0 75.0 0.00 0.00 0.00 67 1002.9
20260506020323 50 0 56.0 75.0 0.00 0.00 0.00 66 1003.0
20260506015323 51 0 56.0 75.0 0.00 0.00 0.00 66 1003.0
20260506014323 51 0 56.0 75.0 0.00 0.00 0.00 66 1003.0
20260506013323 51 22 56.0 75.0 0.00 0.00 0.00 66 1003.0
20260506012323 51 0 56.0 75.0 0.00 0.00 0.00 66 1002.9
20260506011323 51 0 56.0 75.0 0.00 0.00 0.00 65 1003.0
20260506010323 51 0 56.0 75.0 0.00 0.00 0.00 64 1003.0
20260506005323 51 0 56.0 75.0 0.00 0.00 0.00 64 1003.0
20260506004323 51 0 56.0 75.0 0.00 0.00 0.00 63 1002.9
20260506003322 51 0 56.0 75.0 0.00 0.00 0.00 63 1003.1
20260506002322 52 0 56.0 75.0 0.00 0.00 0.00 62 1002.9
20260506001322 52 0 56.0 75.0 0.00 0.00 0.00 62 1003.1
20260506000323 52 0 56.0 75.0 0.00 0.00 0.00 63 1003.2
20260505235322 52 0 56.0 75.0 0.00 0.00 0.00 63 1003.0
20260505234322 52 0 56.0 75.0 0.00 0.00 0.00 63 1003.3
20260505233322 53 0 56.0 75.0 0.00 0.00 0.00 62 1003.3
20260505232322 53 0 56.0 75.0 0.00 0.00 0.00 61 1003.5
20260505231322 53 0 56.0 75.0 0.00 0.00 0.00 60 1003.4
20260505230322 53 0 56.0 75.0 0.00 0.00 0.00 59 1003.5
20260505225322 54 0 56.0 75.0 0.00 0.00 0.00 59 1003.5
20260505224321 54 0 56.0 75.0 0.00 0.00 0.00 59 1003.5
20260505223321 55 0 56.0 75.0 0.00 0.00 0.00 59 1003.6
20260505222321 55 0 56.0 75.0 0.00 0.00 0.00 58 1003.4
20260505221321 56 0 56.0 75.0 0.00 0.00 0.00 58 1003.4
20260505220321 56 0 56.0 75.0 0.00 0.00 0.00 57 1003.5